Regional Weather Roundup
Issued by NWS

Home | Current Version | Previous Version | Text Only | Print | Product List | Glossary Off
Versions: 1 2 3 4 5 6 7 8 9 10 11 12 13 14 15 16 17 18 19 20 21 22 23 24 25 26 27 28 29 30 31 32 33 34 35 36 37 38 39 40 41 42 43 44 45 46 47 48 49 50

000
ASUS44 KMEG 221310
RWRTN
TENNESSEE HOURLY STATE WEATHER ROUNDUP
NATIONAL WEATHER SERVICE MEMPHIS TN
800 AM CDT FRI SEP 22 2017

TNZ002-004-019-021-049-052-054-088>092-221400-
WEST TENNESSEE

CITY           SKY/WX    TMP DP  RH WIND       PRES   REMARKS
MEMPHIS INTL   MOSUNNY   77  72  84 E5        30.05R
NWS MEMPHIS      N/A     73 N/A N/A MISG        N/A
JACKSON        SUNNY     71  71 100 E5        30.07R
DYERSBURG      SUNNY     72  70  93 E3        30.07R
SOMERVILLE     SUNNY     72  70  94 CALM      30.05R
COVINGTON      SUNNY     72  70  94 CALM      30.06R FOG
BOLIVAR        SUNNY     70  70 100 CALM      30.05S
PARIS          SUNNY     72  72 100 CALM      30.06S
HUNTINGDON     SUNNY     72  70  94 CALM      30.06S FOG
LEXINGTON      SUNNY     68  68 100 CALM      30.07R
SAVANNAH       SUNNY     66  66 100 CALM      30.06S
$$

TNZ008-025-027-028-033-062-065-066-221400-
NORTH MIDDLE TENNESSEE

CITY           SKY/WX    TMP DP  RH WIND       PRES   REMARKS
NASHVILLE      SUNNY     70  68  93 CALM      30.09R
PORTLAND       SUNNY     70  70 100 CALM      30.09S
CLARKSVILLE    SUNNY     71  68  90 CALM      30.08S FOG
SMYRNA         SUNNY     73  68  83 CALM      30.10R
COOKEVILLE     SUNNY     66  66 100 CALM      30.10S
GALLATIN       SUNNY     70  68  94 CALM      30.11S
CROSSVILLE     SUNNY     67  65  93 CALM      30.15S FOG
$$

TNZ061-075-076-078-094-096-097-221400-
SOUTH MIDDLE TENNESSEE

CITY           SKY/WX    TMP DP  RH WIND       PRES   REMARKS
FAYETTEVILLE   SUNNY     70  68  94 NE3       30.08S
TULLAHOMA      SUNNY     66  64  94 CALM      30.10F
WINCHESTER     SUNNY     68  64  88 CALM      30.09F
MCMINNVILLE    SUNNY     64  64 100 CALM      30.10F
COLUMBIA       FOG       68 N/A N/A CALM      30.07R VSB 0
SHELBYVILLE    SUNNY     66  66 100 CALM      30.09R
$$

TNZ017-018-042-046-047-221400-
NORTHEAST TENNESSEE

CITY           SKY/WX    TMP DP  RH WIND       PRES   REMARKS
TRI CITIES     MOSUNNY   65  63  93 CALM      30.16R
ELIZABETHTON   SUNNY     66  63  88 CALM      30.16S
$$

TNZ012-013-036-069-073-074-221400-
CENTRAL EAST TENNESSEE

CITY           SKY/WX    TMP DP  RH WIND       PRES   REMARKS
KNOXVILLE      MOSUNNY   68  64  87 CALM      30.11R
OAK RIDGE      SUNNY     69  65  86 CALM      30.13R
DOWNTOWN KNOXV SUNNY     68  66  94 CALM      30.11S
GATLINBURG     SUNNY     64  61  88 CALM      30.12R
MORRISTOWN     SUNNY     70  64  83 E5        30.13R
JACKSBORO      SUNNY     64  64 100 CALM      30.17R
$$

TNZ083-085-099-221400-
SOUTHEAST TENNESSEE

CITY           SKY/WX    TMP DP  RH WIND       PRES   REMARKS
CHATTANOOGA    SUNNY     70  66  87 CALM      30.10R
DAYTON         SUNNY     70  70 100 CALM      30.10R
$$

SKY/WX REPORTED AS FAIR MEANS FEW OR NO CLOUDS BELOW
12 THOUSAND FEET.





USA.gov is the U.S. government's official web portal to all federal, state and local government web resources and services.